COSMOS 1638

Satellite information

Favourite Embed

Satellite Type and Status

PAYLOADIN ORBIT

Key statistics

Satellite COSMOS 1638 at a glance.

Uptime

14827

Days in orbit

Revolutions

≈ 12.5

Per day

Orbit

LEO

Low Earth Orbit

Inclination

74.1

Latest

Satellite identification and parameters

Extended collection of information and parameters for COSMOS 1638.

Object identification

Identified? True

Debris? False

Object name: COSMOS 1638

International designator: 1985-023D

Object number (NORAD): 15620

Object ID (CCSDS): 15620

Country: COMMONWEALTH OF INDEPENDENT STATES (CIS)

Current information (Y/N): Y

RCS size: MEDIUM

Orbital parameters

Period: 115.273 minutes

Inclination: 74.0584 deg

SMA: 7845.938 km

Apoapsis: 1479.72 km

Periapsis: 1455.887 km

RAAN: 349.4886 deg

Eccentricy: 0.00151884

Argument of periapsis: 161.2231 deg

Mean anomaly: 309.5396 deg

Mean motion: 12.49209897 rev/day

Mean motion (dot): 0.00000006 rev/day2

B* drag term: 0.00014166053 1/REarth

Two-line elements (TLE)

Creation date: Oct. 24, 2025, 2:48 a.m.

Reference frame: TEME

Reference center: EARTH

Epoch: Oct. 23, 2025, 9:34 p.m. UTC

TLE line 0: 0 COSMOS 1638

TLE line 1: 1 15620U 85023D 25296.89929728 .00000006 00000-0 14166-3 0 9997

TLE line 2: 2 15620 74.0584 349.4886 0015188 161.2231 309.5396 12.49209897851229

Live tracking on map

Real-time ground track for satellite COSMOS 1638.

In-orbit conjunctions

There are no conjunctions computed for COSMOS 1638, at the moment. Check back to stay up to date, as we update our databases every day.

Go to all conjunctions

Associated space launch

Military communications satellites

COSMOS 1638 was lifted into orbit during the mission ‘Kosmos-3M | Strela-1M 289-296’, on board a Kosmos-3M space rocket.

The launch took place on March 21, 1985, 12:08 a.m. from 132/2.

For more information about the launch, click the button.

Launch to space Kosmos-3M | Strela-1M 289-296
Kosmos-3M | Strela-1M 289-296

Agency: N/A

Status: Launch Successful

Launch date: March 21, 1985, 12:08 a.m. UTC

Rocket: Kosmos-3M

Launch pad: 132/2

Location: Plesetsk Cosmodrome, Russian Federation

...

Latest news about this satellite

There are no fresh news available about this satellite. Check back as we update our databases every day.


Newsletter sign-up

Weekly statistics, charts and insights to help you stay on top of the space industry.